Погода в Михайловке

Россия / Сахалинская область     50°49′52″N   142°10′38″E
темп.,
°C
ветер,
м/с
пор.,
м/с
влажн.,
%
обл.,
%
осадки,
мм/ч
давл.,
гПа
погр.,
м
13 апреля, вт
вт1323:00+1ю41497100 7.4 1011675
02:00+1ю31297100 0.1 1009638
05:00+1ююв3119498 0.1 1008446
08:00+1ююв2890100 0.1 1006382
11:00+2ююв2896100 0.4 1004525
14:00+4ю31290100 0.7 10021105
17:00+3ю41198100 4.5 9991019
20:00+3ю31298100 7.3 996929
14 апреля, ср
ср1423:00+1вюв23100100 11.7 993258
02:000ю02100100 1.7 989238
05:00−5з369598 4.4 990653
08:00−6з5894100 1.9 993679
11:00−6з5889100 3.5 994936
14:00−5зюз5987100 1.2 9951203
17:00−5з5992100 3.0 9971005
20:00−7з4995100 2.8 1000803
15 апреля, чт
чт1523:00−8зсз4993100 4.7 1003691
02:00−8з3990100 0.6 1005931
05:00−7зюз378389 0.7 1006412
08:00−6ююз3984100 0.0 1008674
11:00−3юз4669100 0.0 10101024
14:00−2зюз467110 0.0 10111130
17:00−1зюз246363 0.0 1014896
20:00−4зюз118767 0.0 101715
16 апреля, пт
пт1623:00−6ю378324 0.0 1020110
02:00−6ю37805 0.0 1021103
05:00−7ююв23855 0.0 102248
08:00−4юв23793 0.0 102186
11:00+1ююв256620 0.0 1021865
14:00+4ю365969 0.0 10201189
17:00+5юв2665100 0.0 1018984
20:00+1вюв2283100 0.0 101946
17 апреля, сб
сб1723:00−3вюв3387100 0.0 102085
02:00−3вюв3492100 0.0 1019162
05:00−2вюв359684 0.0 1017203
08:00
11:00+1юв3990100 0.5 1016377
14:00+3ю41194100 0.1 1016914
17:00+5ю488437 0.1 1015657
20:00+2юв1197100 0.0 101628